Regional Weather Roundup
Issued by NWS

Home | Current Version | Previous Version | Text Only | Print | Product List | Glossary On
Versions: 1 2 3 4 5 6 7 8 9 10 11 12 13 14 15 16 17 18 19 20 21 22 23 24 25 26 27 28 29 30 31 32 33 34 35 36 37 38 39 40 41 42 43 44 45 46 47 48 49 50
000
ASUS43 KMKX 211400
RWRWI

WISCONSIN REGIONAL WEATHER ROUNDUP
NATIONAL WEATHER SERVICE MILWAUKEE/SULLIVAN WI
800 AM CST TUE FEB 21 2017

NOTE: "FAIR" INDICATES FEW OR NO CLOUDS BELOW 12,000 FEET WITH NO
SIGNIFICANT WEATHER AND/OR OBSTRUCTIONS TO VISIBILITY.

WIZ001-002-006>008-014>016-023>028-211500-
NORTHWEST WISCONSIN

CITY           SKY/WX    TMP DP  RH WIND       PRES   REMARKS
SUPERIOR ARPT  CLOUDY    35  33  94 SW9       29.84R WCI  27
ASHLAND        MOCLDY    35  33  92 SW10      29.83S WCI  27
HAYWARD        CLOUDY    35  33  92 SW9       29.85F WCI  28
SIREN          FOG       35  34  98 SW5       29.87F VSB 3/4 WCI  31
CUMBERLAND     FOG       32  32 100 SW5       29.87F VSB<1/4 WCI  27
RICE LAKE      CLOUDY    34  34  99 S6        29.89F FOG     WCI  29
CHETEK         CLOUDY    35  34  98 SW5       29.90S FOG     WCI  31
LADYSMITH      CLOUDY    36  35  96 SW6       29.90S FOG     WCI  31
EAU CLAIRE     CLOUDY    37  36  96 SW7       29.90S FOG     WCI  32
MENOMONIE      CLOUDY    37  36  96 S3        29.91S FOG
NEW RICHMOND   FOG       34  34 100 S5        29.90S VSB<1/4 WCI  30
OSCEOLA        FOG       34  34 100 S6        29.92  VSB<1/4 WCI  29
$$

WIZ003>005-009-010-017-018-211500-
NORTH CENTRAL WISCONSIN

CITY           SKY/WX    TMP DP  RH WIND       PRES   REMARKS
MANITOWISH WTR CLOUDY    34  34 100 SW5       29.82S WCI  30
ARBOR VITAE    MOSUNNY   37  35  96 SW3       29.83S
WOODRUFF       MOSUNNY   37  35  96 SW3       29.83S
RHINELANDER    PTSUNNY   38  37  97 SW8       29.85R WCI  32
EAGLE RIVER    SUNNY     36  36  99 SW7       29.82S WCI  31
LAND O LAKES   SUNNY     38  36  92 W5        29.83R WCI  35
PHILLIPS       CLOUDY    35  35 100 SW7       29.87R WCI  29
TOMAHAWK       SUNNY     36  34  95 SW3       29.88R
MEDFORD        CLOUDY    36  34  95 W5        29.88S WCI  32
MERRILL        NOT AVBL
$$

WIZ029-030-035-036-043>047-211500-
CENTRAL WISCONSIN

CITY           SKY/WX    TMP DP  RH WIND       PRES   REMARKS
WAUSAU         CLOUDY    38  35  89 W12       29.87S WCI  30
MOSINEE        CLOUDY    37  37 100 W6        29.89S WCI  33
MARSHFIELD     CLOUDY    38  35  89 W10       29.89S FOG     WCI  31
STEVENS POINT  CLOUDY    38  37  96 W3        29.90S
WAUPACA        MOSUNNY   45  41  85 W7        29.90S
WAUTOMA        MOSUNNY   44  40  85 W8        29.91S
WISC RAPIDS    CLOUDY    41  39  93 W8        29.91S
CAMP DOUGLAS   NOT AVBL
$$

WIZ011>013-019>022-031-037>040-048>050-211500-
NORTHEAST WISCONSIN

CITY           SKY/WX    TMP DP  RH WIND       PRES   REMARKS
ANTIGO         CLOUDY    37  37  98 W13       29.86R WCI  29
SHAWANO        SUNNY     46  41  84 W7        29.88R
OCONTO         SUNNY     46  42  86 W10       29.86R
STURGEON BAY   SUNNY     47  44  90 W10       29.85R
GREEN BAY      SUNNY     46  43  89 W10       29.88R
MANITOWOC      NOT AVBL
APPLETON       PTSUNNY   43  41  93 W17G23    29.88R
CLINTONVILLE   SUNNY     43  39  87 W8        29.88S
OSHKOSH        CLOUDY    45  41  86 W8        29.90R
$$

WIZ032>034-041-042-053>061-211500-
SOUTHWEST WISCONSIN

CITY           SKY/WX    TMP DP  RH WIND       PRES   REMARKS
LA CROSSE      CLOUDY    38  35  89 CALM      29.94R
SPARTA         CLOUDY    40  38  94 CALM      29.93F
VIROQUA        CLOUDY    36  36 100 CALM      29.92F VSB<1/4
BOSCOBEL       FOG       35  34  96 CALM      29.95R VSB<1/4
PRAIRIE DU CHI   N/A     33  32  96 CALM      29.95S FOG
PLATTEVILLE    CLOUDY    37  37 100 W6        29.96R WCI  33
$$

WIZ056-057-062-063-064-067-068-211500-
SOUTH CENTRAL WISCONSIN

CITY           SKY/WX    TMP DP  RH WIND       PRES   REMARKS
REEDSBURG      CLOUDY    42  42 100 W6        29.93R
BARABOO/DELLS  CLOUDY    42  41  95 NW6       29.92S
LONE ROCK      PTSUNNY   40  38  93 W3        29.95R FOG
MINERAL POINT  MOSUNNY   39  39 100 W6        29.94R FOG     WCI  35
MADISON        PTSUNNY   44  42  93 CALM      29.93R FOG
MIDDLETON        N/A     44  44 100 CALM      29.94R
WATERTOWN      MOSUNNY   46  46 100 W7        29.91R
MONROE         PTSUNNY   43  43 100 W9        29.93R
JANESVILLE     MOSUNNY   48  48 100 W7        29.93R
$$

WIZ051-052-058>065-066-070>072-211500-
SOUTHEAST WISCONSIN

CITY           SKY/WX    TMP DP  RH WIND       PRES   REMARKS
MILWAUKEE      PTSUNNY   56  52  86 W7        29.92R FOG
WAUKESHA       PTSUNNY   48  45  87 W10       29.93R
MILWAUKEE/TIMM PTSUNNY   52  46  82 W12G17    29.91R
RACINE         CLOUDY    55  52  89 SW5       29.94R FOG
KENOSHA        CLOUDY    55  52  89 W12       29.93R FOG
FOND DU LAC    CLOUDY    45  40  82 W8        29.91R
SHEBOYGAN      PTSUNNY   48  43  82 W10       29.90R
WEST BEND      PTSUNNY   46  45  93 W5        29.91R
JUNEAU         CLOUDY    44  43  95 CALM      29.92R
$$

LSZ147-162-211500-
LAKE SUPERIOR

STATION/POSITION TIME  TEMP    WIND        PRES    WAVE
                       AIR SEA DIR/SP/G            HT/PER
                 (UTC) (F)     (DEG/KT/KT) (MB)    (FT/S)
DEVILS ISLAND    1300   35     240/ 19/ 22 1009.7R
PORT WING        1330   34     190/  3/  5 1010.5R
SAXON HARBOR     1340   39     200/  8/ 12 1009.8R
$$

LMZ867-665-643>646-211500-
LAKE MICHIGAN

STATION/POSITION TIME  TEMP    WIND        PRES    WAVE
                       AIR SEA DIR/SP/G            HT/PER
                 (UTC) (F)     (DEG/KT/KT) (MB)    (FT/S)
CHAMBERS ISLAND  1330   47     220/  8/ 16 1009.8R
NORTHPORT PIER   1340   51     270/  6/ 12 1009.8R
SISTER BAY       1220   46     260/ 11/ 12   N/A
KEWAUNEE LAKESHO 1330   47     270/  8/ 11 1010.6R
SHEBOYGAN LAKESH 1300   50     280/ 11/ 14 1011.7R
PORT WASHINGTON  1340   51     280/  7/ 10 1013.5R
MILWAUKEE LAKESH 1330   56     290/  9/ 10   N/A
KENOSHA   LAKESH 1300   55     220/  9/ 13 1012.5
$$

TC  - TEMPERATURE IN CELSIUS
VSB - VISIBILITY IN STATUTE MILES
WCI - WIND CHILL INDEX
HX  - HEAT INDEX




USA.gov is the U.S. government's official web portal to all federal, state and local government web resources and services.